Weather History for Wink, TX

Change the Weather History Date:

Tuesday, June 25, 2013

  Actual Average Record
Temperature  
Mean Temperature 91 °F -  
Max Temperature 107 °F 95 °F 111 °F (1990)
Min Temperature 75 °F 68 °F 56 °F (1940)
Cooling Degree Days 26    
Growing Degree Days 41 (Base 50)    
Moisture  
Dew Point 56 °F    
Average Humidity 36    
Maximum Humidity 60    
Minimum Humidity 11    
Precipitation  
Precipitation 0.00 in - - ()
Sea Level Pressure  
Sea Level Pressure 29.74 in    
Wind  
Wind Speed 14 mph (SSE)    
Max Wind Speed 25 mph    
Max Gust Speed 31 mph    
Visibility 10 miles    
Events Thunderstorm    
Averages and records for this station are not official NWS values.
T = Trace of Precipitation, MM = Missing Value Source: NWS Daily Summary

Daily Weather History Graph

Daily Weather History Graph

Search for Another Location

Airport:

Trip Planner

Search our weather history database for the weather conditions in past years. The results will help you decide how hot, cold, wet, or windy it might be!

Date:

Astronomy

Jun. 25, 2013 Rise Set
Actual Time 6:48 AM CDT 9:02 PM CDT
Civil Twilight 6:20 AM CDT 9:30 PM CDT
Nautical Twilight 5:46 AM CDT 10:04 PM CDT
Astronomical Twilight 5:09 AM CDT 10:41 PM CDT
Moon 11:01 PM CDT (6/25) 9:21 AM CDT (6/25)
Length of Visible Light 15h 09m
Length of Day
14h 13m
Waning Gibbous, 92% of the Moon is Illuminated
Jun 25
Waning Gibbous
Jun 29
Last Quarter
Jul 8
New
Jul 15
First Quarter
Jul 22
Full

Hourly Weather History & Observations

Time (CDT) Temp. Heat Index Dew Point Humidity Pressure Visibility Wind Dir Wind Speed Gust Speed Precip Events Conditions
12:53 AM 81.0 °F 81.7 °F 61.0 °F 50% 29.75 in 10.0 mi SSE 18.4 mph 25.3 mph N/A   Clear
1:53 AM 80.1 °F 81.2 °F 62.1 °F 54% 29.75 in 10.0 mi SE 15.0 mph - N/A   Clear
2:53 AM 79.0 °F - 61.0 °F 54% 29.75 in 10.0 mi SSE 13.8 mph - N/A   Clear
3:53 AM 79.0 °F - 62.1 °F 56% 29.74 in 10.0 mi SSE 15.0 mph - N/A   Clear
4:53 AM 78.1 °F - 60.1 °F 54% 29.74 in 10.0 mi SE 13.8 mph - N/A   Clear
5:53 AM 77.0 °F - 59.0 °F 54% 29.75 in 10.0 mi SE 11.5 mph - N/A   Clear
6:53 AM 75.9 °F - 60.1 °F 58% 29.76 in 10.0 mi SSE 12.7 mph - N/A   Clear
7:53 AM 77.0 °F - 62.1 °F 60% 29.79 in 10.0 mi SSE 15.0 mph 19.6 mph N/A   Clear
8:53 AM 80.1 °F 81.7 °F 64.0 °F 58% 29.80 in 10.0 mi SSE 16.1 mph - N/A   Clear
9:53 AM 84.0 °F 85.4 °F 64.0 °F 51% 29.80 in 10.0 mi SSE 12.7 mph - N/A   Clear
10:53 AM 89.1 °F 90.3 °F 64.0 °F 43% 29.78 in 10.0 mi SSE 12.7 mph - N/A   Clear
11:53 AM 93.0 °F 92.7 °F 60.1 °F 33% 29.77 in 10.0 mi SSW 6.9 mph - N/A   Clear
12:53 PM 98.1 °F 96.1 °F 54.0 °F 23% 29.75 in 10.0 mi SSW 5.8 mph - N/A   Clear
1:53 PM 102.0 °F - 48.9 °F 17% 29.73 in 10.0 mi Variable 4.6 mph - N/A   Clear
2:53 PM 102.0 °F - 46.9 °F 16% 29.72 in 10.0 mi North 4.6 mph - N/A   Clear
3:53 PM 105.1 °F - 45.0 °F 13% 29.70 in 10.0 mi South 5.8 mph - N/A   Clear
4:53 PM 107.1 °F - 45.0 °F 12% 29.68 in 10.0 mi SW 5.8 mph - N/A   Clear
5:53 PM 106.0 °F - 43.0 °F 12% 29.66 in 10.0 mi SSE 10.4 mph - N/A   Clear
6:03 PM 105.8 °F - 42.8 °F 12% 29.82 in 10.0 mi South 4.6 mph - N/A Thunderstorm Clear
6:18 PM 105.8 °F - 41.0 °F 11% 29.82 in 10.0 mi WSW 16.1 mph 20.7 mph N/A   Clear
6:53 PM 106.0 °F - 39.9 °F 11% 29.64 in 10.0 mi West 6.9 mph - N/A   Clear
7:53 PM 100.0 °F 99.7 °F 57.9 °F 25% 29.65 in 10.0 mi SE 25.3 mph 28.8 mph N/A   Clear
8:53 PM 97.0 °F 97.4 °F 61.0 °F 30% 29.65 in 10.0 mi SSE 17.3 mph - N/A   Clear
9:53 PM 93.0 °F 94.2 °F 63.0 °F 37% 29.69 in 10.0 mi SE 18.4 mph 27.6 mph N/A   Clear
10:53 PM 89.1 °F 90.3 °F 64.0 °F 43% 29.73 in 10.0 mi SSE 18.4 mph 27.6 mph N/A   Clear
11:53 PM 86.0 °F 86.8 °F 63.0 °F 46% 29.73 in 10.0 mi SSE 17.3 mph 31.1 mph N/A   Clear